WC1Z Weather Reports


Display with metric or nautical units.
time (UTC)temp
F
wind
direction
speed
MPH
gust
MPH
rain 1hr
in
rain 24hr
in
rain mn
in
humidity
%
barometer
mb
20260503192200 76 359 2.0 4.0 0.00 0.00 0.00 47 1021.1
20260503191701 76 253 6.0 8.0 0.00 0.00 0.00 50 1021.2
20260503191200 75 289 5.0 7.0 0.00 0.00 0.00 50 1021.3
20260503190701 75 218 2.0 4.0 0.00 0.00 0.00 50 1021.4
20260503190200 75 281 4.0 6.0 0.00 0.00 0.00 48 1021.4
20260503185700 75 235 6.0 10.0 0.00 0.00 0.00 51 1021.4
20260503185200 75 295 5.0 8.0 0.00 0.00 0.00 49 1021.5
20260503184701 75 313 2.0 4.0 0.00 0.00 0.00 47 1021.6
20260503184201 75 270 4.0 5.0 0.00 0.00 0.00 50 1021.8
20260503183700 76 261 6.0 9.0 0.00 0.00 0.00 49 1021.8
20260503183200 76 306 4.0 5.0 0.00 0.00 0.00 49 1021.8
20260503182700 76 174 2.0 4.0 0.00 0.00 0.00 49 1022.0
20260503182201 75 5 3.0 7.0 0.00 0.00 0.00 49 1022.1
20260503181700 75 282 4.0 6.0 0.00 0.00 0.00 47 1022.1
20260503181200 75 228 6.0 9.0 0.00 0.00 0.00 47 1022.1
20260503180701 75 228 7.0 10.0 0.00 0.00 0.00 45 1022.3
20260503180201 75 274 8.0 11.0 0.00 0.00 0.00 48 1022.3
20260503175700 75 226 6.0 8.0 0.00 0.00 0.00 45 1022.4
20260503175200 75 191 4.0 6.0 0.00 0.00 0.00 49 1022.4
20260503174700 75 178 2.0 3.0 0.00 0.00 0.00 46 1022.4
20260503174200 74 181 5.0 8.0 0.00 0.00 0.00 49 1022.5
20260503173700 74 234 6.0 9.0 0.00 0.00 0.00 48 1022.6
20260503173201 74 220 6.0 7.0 0.00 0.00 0.00 47 1022.7
20260503172701 74 217 1.0 4.0 0.00 0.00 0.00 47 1022.7
20260503172200 74 241 2.0 3.0 0.00 0.00 0.00 47 1022.8
20260503171701 74 250 6.0 8.0 0.00 0.00 0.00 48 1022.9
20260503171200 74 271 4.0 6.0 0.00 0.00 0.00 48 1022.9
20260503170702 74 310 4.0 9.0 0.00 0.00 0.00 46 1022.9
20260503170200 74 286 5.0 6.0 0.00 0.00 0.00 44 1023.1
20260503160201 71 265 3.0 7.0 0.00 0.00 0.00 57 1023.3
20260503150702 69 264 2.0 3.0 0.00 0.00 0.00 63 1023.3
20260503150200 68 231 3.0 5.0 0.00 0.00 0.00 64 1023.3
20260503140200 59 142 1.0 2.0 0.00 0.00 0.00 93 1022.9
20260503131200 53 338 2.0 2.0 0.00 0.00 0.00 96 1022.6
20260503130701 53 324 2.0 3.0 0.00 0.00 0.00 96 1022.6
20260503130200 52 5 2.0 3.0 0.00 0.00 0.00 96 1022.6
20260503120200 48 0 0.0 0.0 0.00 0.00 0.00 95 1021.8
20260503110700 47 0 0.0 0.0 0.00 0.00 0.00 95 1021.0
20260503110201 47 0 0.0 0.0 0.00 0.00 0.00 95 1020.9
20260503100200 47 0 0.0 0.0 0.00 0.00 0.00 95 1020.6
20260503090200 47 0 0.0 0.0 0.00 0.00 0.00 95 1020.5
20260503081200 48 0 0.0 0.0 0.00 0.00 0.00 94 1020.5
20260503080700 48 0 0.0 0.0 0.00 0.00 0.00 94 1020.5
20260503080200 48 0 0.0 0.0 0.00 0.00 0.00 94 1020.6
20260503072700 49 0 0.0 0.0 0.00 0.00 0.00 94 1020.6
20260503072200 49 0 0.0 0.0 0.00 0.00 0.00 94 1020.5
20260503071231 49 0 0.0 0.0 0.00 0.00 0.00 94 1020.6
20260503070700 49 0 0.0 0.0 0.00 0.00 0.00 94 1020.6
20260503070200 49 0 0.0 0.0 0.00 0.00 0.00 94 1020.7
20260503060201 50 246 0.0 1.0 0.00 0.00 0.00 94 1020.5
20260503054700 51 244 1.0 2.0 0.00 0.00 0.00 94 1020.6
20260503054200 51 0 0.0 0.0 0.00 0.00 0.00 94 1020.7
20260503053700 51 0 0.0 0.0 0.00 0.00 0.00 94 1020.6
20260503053201 51 0 0.0 0.0 0.00 0.00 0.00 93 1020.6
20260503052700 51 0 0.0 0.0 0.00 0.00 0.00 93 1020.6
20260503052200 51 0 0.0 0.0 0.00 0.00 0.00 94 1020.5
20260503051702 51 0 0.0 0.0 0.00 0.00 0.00 93 1020.6
20260503051200 51 0 0.0 0.0 0.00 0.00 0.00 93 1020.7
20260503050701 51 259 0.0 1.0 0.00 0.00 0.00 93 1020.7
20260503050200 52 0 0.0 0.0 0.00 0.00 0.00 93 1020.6
20260503045700 52 0 0.0 0.0 0.00 0.00 0.00 93 1020.6
20260503045204 52 0 0.0 0.0 0.00 0.00 0.00 93 1020.6
20260503044700 52 0 0.0 0.0 0.00 0.00 0.00 93 1020.6
20260503044201 52 280 0.0 1.0 0.00 0.00 0.00 93 1020.6
20260503043700 52 0 0.0 0.0 0.00 0.00 0.00 93 1020.6
20260503043200 53 0 0.0 0.0 0.00 0.00 0.00 93 1020.7
20260503042700 53 0 0.0 0.0 0.00 0.00 0.00 93 1020.7
20260503042200 53 0 0.0 0.0 0.00 0.00 0.00 93 1020.7
20260503041710 53 0 0.0 0.0 0.00 0.00 0.00 92 1020.8
20260503041201 53 0 0.0 0.0 0.00 0.00 0.00 92 1020.8
20260503040700 53 226 0.0 1.0 0.00 0.00 0.00 92 1020.8
20260503040200 53 0 0.0 0.0 0.00 0.00 0.00 92 1020.8
20260503035700 53 275 0.0 1.0 0.00 0.00 0.00 92 1020.8
20260503035200 53 260 0.0 1.0 0.00 0.00 0.00 92 1020.8
20260503034701 54 0 0.0 0.0 0.00 0.00 0.00 92 1020.8
20260503034200 54 0 0.0 0.0 0.00 0.00 0.00 92 1020.7
20260503033705 54 0 0.0 0.0 0.00 0.00 0.00 92 1020.6
20260503033200 54 0 0.0 0.0 0.00 0.00 0.00 92 1020.6
20260503032700 54 0 0.0 0.0 0.00 0.00 0.00 91 1020.6
20260503032200 54 0 0.0 0.0 0.00 0.00 0.00 91 1020.6
20260503031700 55 0 0.0 0.0 0.00 0.00 0.00 91 1020.6
20260503031200 55 228 0.0 1.0 0.00 0.00 0.00 91 1020.6
20260503030700 55 198 0.0 1.0 0.00 0.00 0.00 91 1020.6
20260503030200 55 0 0.0 0.0 0.00 0.00 0.00 90 1020.5
20260503025700 55 0 0.0 0.0 0.00 0.00 0.00 90 1020.5
20260503025200 55 0 0.0 0.0 0.00 0.00 0.00 90 1020.5
20260503024700 56 0 0.0 0.0 0.00 0.00 0.00 90 1020.5
20260503024200 56 0 0.0 0.0 0.00 0.00 0.00 90 1020.4
20260503023702 56 265 0.0 0.0 0.00 0.00 0.00 90 1020.4
20260503023200 56 0 0.0 0.0 0.00 0.00 0.00 89 1020.3
20260503022700 56 0 0.0 0.0 0.00 0.00 0.00 89 1020.3
20260503022201 56 0 0.0 0.0 0.00 0.00 0.00 88 1020.1
20260503021700 57 8 0.0 0.0 0.00 0.00 0.00 88 1020.1
20260503021201 57 0 0.0 0.0 0.00 0.00 0.00 88 1020.0
20260503020701 57 305 0.0 1.0 0.00 0.00 0.00 87 1020.0
20260503020201 58 0 0.0 0.0 0.00 0.00 0.00 87 1019.9
20260503015700 58 5 0.0 1.0 0.00 0.00 0.00 86 1019.9
20260503015200 58 278 0.0 2.0 0.00 0.00 0.00 85 1019.9
20260503014700 59 0 0.0 0.0 0.00 0.00 0.00 84 1019.9
20260503014201 59 0 0.0 0.0 0.00 0.00 0.00 84 1019.8
20260503013701 60 0 0.0 0.0 0.00 0.00 0.00 82 1019.8
20260503013200 60 355 0.0 1.0 0.00 0.00 0.00 80 1019.8
20260503012700 61 354 0.0 1.0 0.00 0.00 0.00 78 1019.8
20260503012159 61 359 0.0 1.0 0.00 0.00 0.00 77 1019.7
20260503011700 62 340 0.0 0.0 0.00 0.00 0.00 75 1019.7
20260503011201 62 0 0.0 0.0 0.00 0.00 0.00 74 1019.7
20260503010701 63 0 0.0 0.0 0.00 0.00 0.00 74 1019.6
20260503010200 64 0 0.0 0.0 0.00 0.00 0.00 72 1019.6
20260503005700 65 0 0.0 0.0 0.00 0.00 0.00 71 1019.5
20260503005200 65 42 0.0 0.0 0.00 0.00 0.00 70 1019.5
20260503004700 66 326 0.0 0.0 0.00 0.00 0.00 66 1019.4
20260503004200 67 333 0.0 1.0 0.00 0.00 0.00 68 1019.4
20260503003701 68 30 2.0 3.0 0.00 0.00 0.00 65 1019.4
20260503003200 69 24 0.0 2.0 0.00 0.00 0.00 63 1019.4
20260503002700 69 19 1.0 2.0 0.00 0.00 0.00 63 1019.4
20260503002200 70 43 0.0 2.0 0.00 0.00 0.00 62 1019.4
20260503001700 71 24 1.0 2.0 0.00 0.00 0.00 61 1019.4
20260503001201 72 45 1.0 2.0 0.00 0.00 0.00 59 1019.4
20260503000700 73 18 2.0 4.0 0.00 0.00 0.00 56 1019.4
20260503000200 73 11 0.0 1.0 0.00 0.00 0.00 53 1019.3
20260502235700 73 38 1.0 2.0 0.00 0.00 0.00 50 1019.2
20260502235202 73 57 1.0 2.0 0.00 0.00 0.00 51 1019.2
20260502234700 73 7 1.0 4.0 0.00 0.00 0.00 47 1019.2
20260502234200 73 26 2.0 3.0 0.00 0.00 0.00 47 1019.2
20260502233700 73 356 1.0 3.0 0.00 0.00 0.00 47 1019.2
20260502233200 72 22 1.0 3.0 0.00 0.00 0.00 47 1019.2
20260502232700 72 38 2.0 5.0 0.00 0.00 0.00 49 1019.2
20260502232201 73 52 3.0 5.0 0.00 0.00 0.00 47 1019.1
20260502231700 73 54 3.0 5.0 0.00 0.00 0.00 48 1019.1
20260502231206 72 23 4.0 5.0 0.00 0.00 0.00 47 1019.1
20260502230700 72 27 3.0 6.0 0.00 0.00 0.00 45 1019.1
20260502230200 72 80 2.0 4.0 0.00 0.00 0.00 48 1019.1
20260502225700 72 106 5.0 8.0 0.00 0.00 0.00 48 1019.1
20260502225200 72 102 5.0 9.0 0.00 0.00 0.00 48 1019.1
20260502224700 72 71 2.0 4.0 0.00 0.00 0.00 48 1019.2
20260502224200 72 353 2.0 4.0 0.00 0.00 0.00 49 1019.2
20260502223700 71 39 1.0 3.0 0.00 0.00 0.00 51 1019.2
20260502223200 71 46 4.0 5.0 0.00 0.00 0.00 49 1019.2
20260502222701 70 66 1.0 2.0 0.00 0.00 0.00 50 1019.2
20260502222200 70 52 4.0 5.0 0.00 0.00 0.00 50 1019.2
20260502221701 71 84 3.0 4.0 0.00 0.00 0.00 50 1019.2
20260502221202 71 96 3.0 4.0 0.00 0.00 0.00 51 1019.2
20260502220700 71 60 5.0 8.0 0.00 0.00 0.00 51 1019.2
20260502220200 71 49 6.0 8.0 0.00 0.00 0.00 49 1019.1
20260502215702 72 52 6.0 8.0 0.00 0.00 0.00 46 1019.2
20260502215200 72 354 3.0 6.0 0.00 0.00 0.00 46 1019.2
20260502214701 72 353 3.0 5.0 0.00 0.00 0.00 46 1019.2
20260502214200 72 5 6.0 9.0 0.00 0.00 0.00 47 1019.2
20260502213701 72 56 4.0 6.0 0.00 0.00 0.00 47 1019.2
20260502213201 73 326 4.0 11.0 0.00 0.00 0.00 46 1019.2
20260502212700 72 33 3.0 6.0 0.00 0.00 0.00 46 1019.2
20260502212200 72 338 2.0 5.0 0.00 0.00 0.00 47 1019.4
20260502211701 71 56 4.0 8.0 0.00 0.00 0.00 47 1019.3
20260502211200 71 80 7.0 11.0 0.00 0.00 0.00 47 1019.3
20260502210700 71 16 3.0 5.0 0.00 0.00 0.00 49 1019.3
20260502210200 71 313 2.0 3.0 0.00 0.00 0.00 48 1019.4
20260502205700 71 21 4.0 8.0 0.00 0.00 0.00 48 1019.5
20260502205200 71 295 4.0 7.0 0.00 0.00 0.00 49 1019.4
20260502204700 71 330 4.0 9.0 0.00 0.00 0.00 46 1019.6
20260502204200 71 25 2.0 5.0 0.00 0.00 0.00 50 1019.7
20260502203700 71 66 4.0 7.0 0.00 0.00 0.00 48 1019.7
20260502203200 71 305 4.0 8.0 0.00 0.00 0.00 47 1019.9
20260502202700 71 59 7.0 9.0 0.00 0.00 0.00 48 1019.7
20260502202200 71 86 5.0 8.0 0.00 0.00 0.00 47 1019.9
20260502201700 71 24 4.0 7.0 0.00 0.00 0.00 47 1019.9
20260502201200 71 315 5.0 9.0 0.00 0.00 0.00 47 1020.0
20260502200700 71 43 7.0 9.0 0.00 0.00 0.00 46 1020.0
20260502200200 71 9 5.0 6.0 0.00 0.00 0.00 47 1020.1
20260502195700 71 313 3.0 5.0 0.00 0.00 0.00 44 1020.3
20260502195200 71 15 5.0 8.0 0.00 0.00 0.00 46 1020.4
20260502194700 71 5 4.0 5.0 0.00 0.00 0.00 51 1020.5
20260502194200 71 313 3.0 6.0 0.00 0.00 0.00 48 1020.5
20260502193700 70 52 3.0 4.0 0.00 0.00 0.00 48 1020.5
20260502193200 70 350 4.0 5.0 0.00 0.00 0.00 49 1020.6
20260502192700 70 295 2.0 5.0 0.00 0.00 0.00 45 1020.5